Phuket, Thailand

12:22 PM +07 on March 28, 2017 (GMT +0700)
Phuket International

Weather History for VTSP - May, 2012

Change the Weather History Date:

Monday, May 28, 2012

  Actual Average Record
Temperature  
Mean Temperature 76 °F -  
Max Temperature 85 °F 88 °F 100 °F (1999)
Min Temperature 68 °F 77 °F 68 °F (2012)
Cooling Degree Days 12    
Growing Degree Days 26 (Base 50)    
Moisture  
Dew Point 78 °F    
Average Humidity 89    
Maximum Humidity 100    
Minimum Humidity 74    
Precipitation  
Precipitation 0.59 in 0.38 in - ()
Sea Level Pressure  
Sea Level Pressure 29.77 in    
Wind  
Wind Speed 5 mph ()    
Max Wind Speed 29 mph    
Max Gust Speed -    
Visibility 4.1 miles    
Events Rain    
Averages and records for this station are not official NWS values.
T = Trace of Precipitation, MM = Missing Value Source: Averaged Metar Reports

Daily Weather History Graph

Daily Weather History Graph

Search for Another Location

Airport or City:

Trip Planner

Search our weather history database for the weather conditions in past years. The results will help you decide how hot, cold, wet, or windy it might be!

Date:

Astronomy

May. 28, 2012 Rise Set
Actual Time 6:07 AM +07 6:40 PM +07
Civil Twilight 5:44 AM +07 7:03 PM +07
Nautical Twilight 5:18 AM +07 7:29 PM +07
Astronomical Twilight 4:51 AM +07 7:56 PM +07
Moon 11:57 AM +07 No Moon Set
Length of Visible Light 13h 18m
Length of Day
12h 33m
Waxing Crescent, 43% of the Moon is Illuminated
May 28
Waxing Crescent
May 29
First Quarter
Jun 4
Full
Jun 11
Last Quarter
Jun 19
New

Hourly Weather History & Observations

Time (+07) Temp. Heat Index Dew Point Humidity Pressure Visibility Wind Dir Wind Speed Gust Speed Precip Events Conditions
12:00 AM 77.0 °F - 75.2 °F 94% 29.80 in 2.5 mi WSW 5.8 mph - N/A Rain Light Rain
12:30 AM 77.0 °F - 75.2 °F 94% 29.80 in 3.1 mi West 4.6 mph - N/A   Mostly Cloudy
1:00 AM 82 °F - 78 °F 83% 29.73 in 5 mi WSW 6.9 mph - - Rain Light Rain
1:00 AM 78.8 °F - 78.8 °F 100% 29.77 in 3.7 mi SW 4.6 mph - N/A   Mostly Cloudy
1:30 AM 78.8 °F - 77.0 °F 94% 29.77 in 3.7 mi WSW 4.6 mph - N/A   Mostly Cloudy
2:00 AM 78.8 °F - 77.0 °F 94% 29.77 in 3.7 mi WSW 6.9 mph - N/A Rain Light Rain
2:30 AM 78.8 °F - 77.0 °F 94% 29.74 in 3.7 mi Calm Calm - N/A Rain Light Rain
3:00 AM 78.8 °F - 75.2 °F 89% 29.74 in 3.7 mi Calm Calm - N/A Rain Light Rain
3:30 AM 78.8 °F - 75.2 °F 89% 29.74 in 3.7 mi SSW 3.5 mph - N/A   Mostly Cloudy
4:00 AM 78.8 °F - 75.2 °F 89% 29.74 in 3.7 mi Calm Calm - N/A   Mostly Cloudy
4:30 AM 80.6 °F 87.1 °F 77.0 °F 89% 29.74 in 1.9 mi WSW 8.1 mph - N/A Rain Light Rain
5:00 AM 80.6 °F 89.3 °F 80.6 °F 100% 29.74 in 3.7 mi SW 6.9 mph - N/A   Mostly Cloudy
5:30 AM 80.6 °F 87.1 °F 77.0 °F 89% 29.74 in 3.7 mi SW 6.9 mph - N/A   Mostly Cloudy
6:00 AM 80.6 °F 87.1 °F 77.0 °F 89% 29.74 in 3.7 mi West 8.1 mph - N/A   Mostly Cloudy
6:30 AM 78.8 °F - 75.2 °F 89% 29.77 in 3.7 mi Calm Calm - N/A   Mostly Cloudy
7:00 AM 80 °F - 77 °F 89% 29.73 in 4 mi West 12.7 mph - - Rain Light Rain
7:30 AM 77.0 °F - 75.2 °F 94% 29.80 in 3.1 mi WSW 3.5 mph - N/A Rain Light Rain
8:00 AM 78.8 °F - 77.0 °F 94% 29.80 in 4.3 mi Calm Calm - N/A   Mostly Cloudy
8:30 AM 80.6 °F 87.1 °F 77.0 °F 89% 29.80 in 4.3 mi West 3.5 mph - N/A   Mostly Cloudy
9:00 AM 80.6 °F 87.1 °F 77.0 °F 89% 29.80 in 4.3 mi Calm Calm - N/A   Mostly Cloudy
9:30 AM 82.4 °F 94.0 °F 80.6 °F 94% 29.80 in 4.3 mi WSW 3.5 mph - N/A   Mostly Cloudy
10:00 AM 78.8 °F - 77.0 °F 94% 29.83 in 0.9 mi West 28.8 mph - N/A Rain Heavy Rain
10:30 AM 77.0 °F - 75.2 °F 94% 29.80 in 4.3 mi WSW 8.1 mph - N/A   Mostly Cloudy
11:00 AM 78.8 °F - 77.0 °F 94% 29.80 in 4.3 mi WNW 9.2 mph - N/A   Mostly Cloudy
11:30 AM 82.4 °F 92.4 °F 78.8 °F 89% 29.80 in 4.3 mi WSW 11.5 mph - N/A   Mostly Cloudy
12:00 PM 82.4 °F 92.4 °F 78.8 °F 89% 29.80 in 4.3 mi WSW 8.1 mph - N/A   Mostly Cloudy
12:30 PM 84.2 °F 94.1 °F 77.0 °F 79% 29.80 in 4.3 mi West 8.1 mph - N/A   Mostly Cloudy
1:00 PM 84 °F - 77 °F 75% 29.78 in 6 mi West 11.5 mph - -   Partly Cloudy
1:00 PM 84.2 °F 94.1 °F 77.0 °F 79% 29.80 in 4.3 mi West 11.5 mph - N/A   Mostly Cloudy
1:30 PM 80.6 °F 87.1 °F 77.0 °F 89% 29.80 in 4.3 mi West 10.4 mph - N/A   Mostly Cloudy
2:00 PM 82.4 °F 90.9 °F 77.0 °F 84% 29.77 in 4.3 mi WSW 8.1 mph - N/A   Mostly Cloudy
2:30 PM 84.2 °F 103.5 °F 84.2 °F 100% 29.77 in 4.3 mi West 4.6 mph - N/A   Mostly Cloudy
3:00 PM 84.2 °F 98.3 °F 80.6 °F 89% 29.74 in 4.3 mi WSW 5.8 mph - N/A   Mostly Cloudy
3:30 PM 84.2 °F 96.1 °F 78.8 °F 84% 29.74 in 4.3 mi SW 5.8 mph - N/A   Mostly Cloudy
4:00 PM 84.2 °F 98.3 °F 80.6 °F 89% 29.74 in 4.3 mi SSW 4.6 mph - N/A   Mostly Cloudy
4:30 PM 84.2 °F 96.1 °F 78.8 °F 84% 29.74 in 4.3 mi WSW 5.8 mph - N/A   Mostly Cloudy
5:00 PM 84.2 °F 100.6 °F 82.4 °F 94% 29.74 in 4.3 mi WSW 10.4 mph - N/A   Mostly Cloudy
5:30 PM 84.2 °F 92.3 °F 75.2 °F 74% 29.74 in 4.3 mi WSW 5.8 mph - N/A   Mostly Cloudy
6:00 PM 84.2 °F 96.1 °F 78.8 °F 84% 29.74 in 4.3 mi WSW 3.5 mph - N/A   Mostly Cloudy
6:30 PM 82.4 °F 94.0 °F 80.6 °F 94% 29.74 in 4.3 mi SSW 4.6 mph - N/A   Mostly Cloudy
7:00 PM 84 °F - 78 °F 76% 29.73 in 6 mi WSW 5.8 mph - -   Partly Cloudy
7:00 PM 82.4 °F 90.9 °F 77.0 °F 84% 29.77 in 4.3 mi WSW 5.8 mph - N/A   Mostly Cloudy
7:30 PM 82.4 °F 94.0 °F 80.6 °F 94% 29.77 in 4.3 mi WSW 3.5 mph - N/A   Mostly Cloudy
8:00 PM 82.4 °F 94.0 °F 80.6 °F 94% 29.77 in 4.3 mi SSW 5.8 mph - N/A   Mostly Cloudy
8:30 PM 82.4 °F 92.4 °F 78.8 °F 89% 29.80 in 4.3 mi WSW 5.8 mph - N/A   Mostly Cloudy
9:00 PM 82.4 °F 90.9 °F 77.0 °F 84% 29.80 in 4.3 mi Variable 4.6 mph - N/A   Mostly Cloudy
9:30 PM 82.4 °F 90.9 °F 77.0 °F 84% 29.80 in 4.3 mi Variable 2.3 mph - N/A   Mostly Cloudy
10:00 PM 80.6 °F 87.1 °F 77.0 °F 89% 29.80 in 4.3 mi Variable 2.3 mph - N/A   Mostly Cloudy
10:30 PM 82.4 °F 90.9 °F 77.0 °F 84% 29.80 in 4.3 mi Calm Calm - N/A   Mostly Cloudy
11:00 PM 82.4 °F 90.9 °F 77.0 °F 84% 29.80 in 4.3 mi SW 4.6 mph - N/A   Mostly Cloudy
11:30 PM 82.4 °F 94.0 °F 80.6 °F 94% 29.80 in 5.0 mi WSW 4.6 mph - N/A   Mostly Cloudy